This is the latest recevied weather packets stored in our database for station/object N3SBK. If no packets are shown the sender has not sent any weather packets the latest 10 day(s).
| Time | Temp. | Humidity | Pressure | Rain* | Wind** | Luminosity | Snow |
|---|---|---|---|---|---|---|---|
| 1777836207 | 13.89° C | 36% | 1006.2 hPa | 0 mm | - | 155 W/m² | - |
| 1777835903 | 13.33° C | 37% | 1006.3 hPa | 0 mm | - | 676 W/m² | - |
| 1777835601 | 13.89° C | 36% | 1006.4 hPa | 0 mm | - | 137 W/m² | - |
| 1777835297 | 13.89° C | 37% | 1006.3 hPa | 0 mm | - | 688 W/m² | - |
| 1777834995 | 14.44° C | 36% | 1006.5 hPa | 0 mm | - | 677 W/m² | - |
| 1777834692 | 13.89° C | 36% | 1006.1 hPa | 0 mm | - | 674 W/m² | - |
| 1777834388 | 13.33° C | 38% | 1006.5 hPa | 0 mm | - | 735 W/m² | - |
| 1777834088 | 12.78° C | 39% | 1006.5 hPa | 0 mm | - | 356 W/m² | - |
| 1777833784 | 13.89° C | 37% | 1006.6 hPa | 0 mm | - | 191 W/m² | - |
| 1777833480 | 13.33° C | 38% | 1006.5 hPa | 0 mm | - | 739 W/m² | - |
| 1777833178 | 12.78° C | 37% | 1006.6 hPa | 0 mm | - | 217 W/m² | - |
| 1777832875 | 13.89° C | 36% | 1006.6 hPa | 0 mm | - | 114 W/m² | - |
| 1777832574 | 13.33° C | 42% | 1006.7 hPa | 0 mm | - | 705 W/m² | - |
| 1777832270 | 13.33° C | 36% | 1006.8 hPa | 0 mm | - | 728 W/m² | - |
| 1777831967 | 13.33° C | 37% | 1006.7 hPa | 0 mm | - | 126 W/m² | - |
| 1777831663 | 13.33° C | 36% | 1007 hPa | 0 mm | - | 744 W/m² | - |
| 1777831362 | 13.33° C | 39% | 1006.8 hPa | 0 mm | - | 728 W/m² | - |
| 1777831058 | 13.33° C | 41% | 1006.7 hPa | 0 mm | - | 765 W/m² | - |
| 1777830756 | 13.33° C | 39% | 1006.9 hPa | 0 mm | - | 745 W/m² | - |
| 1777830452 | 13.33° C | 39% | 1007 hPa | 0 mm | - | 769 W/m² | - |
| 1777830151 | 12.78° C | 37% | 1006.9 hPa | 0 mm | - | 749 W/m² | - |
| 1777829850 | 12.22° C | 37% | 1007 hPa | 0 mm | - | 766 W/m² | - |
| 1777829546 | 12.22° C | 44% | 1006.9 hPa | 0 mm | - | 765 W/m² | - |
| 1777829244 | 12.22° C | 40% | 1007 hPa | 0 mm | - | 782 W/m² | - |
| 1777828941 | 12.22° C | 41% | 1007.1 hPa | 0 mm | - | 743 W/m² | - |
* Rain latest hour (hover to see other rain measurements)
** Current wind speed in m/s (hover to see current wind gust speed)